Weather in Ogbomosho

Nigeria     8°08′08″N   4°14′14″E
temp.,
°C
wind,
m/s
gust,
m/s
humid.,
%
clouds,
%
prec.,
mm/h
press.,
hPa
HPBL,
m
26 july, mon
mon2601:00+21ssw398819 0.0 1014400
04:00+20ssw389561 0.0 1014436
07:00+20ssw3993100 0.0 1015453
10:00+23sw477990 0.0 1016630
13:00+27ssw556179 0.0 10141065
16:00+25s3568100 0.0 1012789
19:00+23s3881100 0.0 1013356
22:00+22s41088100 0.0 1015497
27 july, tue
tue2701:00+21ssw41091100 0.0 1014526
04:00+21ssw4992100 0.0 1014639
07:00+21sw498997 0.0 1015626
10:00+23sw5877100 0.1 1017941
13:00+25sw566797 0.1 10151134
16:00+25sw4567100 0.1 10131077
19:00+23s2680100 0.2 1014345
22:00+21ssw278951 0.1 1015310
28 july, wed
wed2801:00+21s289255 0.1 1014344
04:00+20sw289497 0.0 1014352
07:00+20sw2883100 0.0 1015464
10:00+24sw4767100 0.0 1016707
13:00+28ssw555471 0.0 10151458
16:00+24ssw4672100 0.0 1013479
19:00+22ssw2681100 0.0 1014210
22:00+21ssw228799 0.0 101544
29 july, thu
thu2901:00+20ssw238967 0.0 101566
04:00+19sw259737 0.0 1014123
07:00+19sw139629 0.0 101691
10:00+26sw346064 0.0 1016840
13:00+31sw3345100 0.0 10141937
16:00+28sw1259100 0.1 1012150
19:00+25sw2572100 0.2 1013146
22:00+24sw2371100 0.0 101475
30 july, fri
fri3001:00+22ssw2687100 0.0 1014195
04:00+21ssw379694 0.0 1013272
07:00+21ssw2794100 0.0 1015282
10:00+24ssw3580100 0.0 1016636
13:00+26sw346990 0.0 1014906
16:00+28sw445894 0.1 10111427
19:00+26sw266973 0.3 1012211
22:00+23ssw498895 0.7 1015415